Location: ?????????
(44.2517°N, 135.2292°E)
Time: 01:15:17
(UTC+00:00)

Meteor 2-21 Rocket - Pass Details

Date: 19 May 2025
Orbit: 935 x 967 km, 82.6° (Epoch: 13 June)

Event Time Altitude Azimuth Distance (km) Brightness Sun altitude
Exits shadow 16:38:45 42° 210° (SSW) 1,355 4.7 -21.6°
Maximum altitude 16:40:56 70° 280° (W) 1,026 4.5 -21.5°
Drops below altitude 10° 16:47:09 10° 4° (N) 2,718 7.8 -20.9°
Sets 16:49:42 0° 7° (N) 3,669 8.7 -20.7°
